Location: Halltal
(47.3167°N, 11.4833°E)
Time: 23:46:44
(UTC+00:00)

Daily predictions for brighter satellites

Satellite Brightness Start Highest point End
(mag) Time Altitude Azimuth Time Altitude Azimuth Time Altitude Azimuth
ATLAS 3B R/B 3.2 15:47:38 10° NW 15:54:51 78° SW 16:02:21 10° SSE
Cosmos 1725 Rocket 4.4 15:50:24 10° SSW 15:56:32 68° WNW 16:02:44 10° N
NOAA 11 4.2 15:51:51 10° SSE 15:57:17 88° ENE 16:02:45 10° NNW
Cosmos 2098 Rocket 4.2 15:53:07 10° N 15:59:09 62° ENE 16:06:10 10° SSE
USA 308 3.8 15:55:26 10° SSW 15:59:19 35° SE 16:03:11 10° ENE
Cosmos 2369 Rocket 4.1 15:54:47 10° NW 15:59:52 36° WSW 16:04:58 10° S
SL-4 R/B 3.8 15:55:49 10° WNW 16:00:09 41° SW 16:04:37 10° SSE
Cosmos 1812 Rocket 4.0 15:55:45 10° SSW 16:00:11 70° W 16:04:40 10° N
ATLAS 5 CENTAUR R/B 3.0 15:54:43 10° NW 16:00:13 63° SW 16:06:45 10° SSE
CZ-4C R/B 4.1 16:00:24 10° NW 16:05:00 20° N 16:10:14 10° NE
Cosmos 1943 3.6 15:59:58 10° SW 16:05:35 67° WNW 16:11:12 10° NNE
CZ-2C R/B 2.9 16:00:33 10° SSE 16:05:39 77° ENE 16:10:31 10° N
SJ 16-02 1.9 16:02:02 10° N 16:06:05 34° ENE 16:10:04 10° SE
Cosmos-2242 3.1 16:04:07 10° S 16:08:26 85° W 16:12:45 10° N
MOS 1 Rocket 4.5 16:03:24 10° N 16:08:29 50° WNW 16:13:17 10° SW
FengYun 1-2 T 4.3 16:03:13 10° SSE 16:08:45 64° ENE 16:14:17 10° N
NOAA 6 4.1 16:07:15 10° SSE 16:12:16 56° ENE 16:17:18 10° N
Cosmos 2151 4.4 16:08:37 10° NNW 16:12:42 42° W 16:16:44 10° SSW
Cosmos 1354 Rocket 4.2 16:07:26 10° NNW 16:12:47 83° WSW 16:18:07 10° SSE
CZ-4B R/B 4.0 16:08:46 10° ESE 16:13:19 27° ENE 16:17:48 10° N
CORIOLIS 4.3 16:09:10 10° SE 16:14:22 53° ENE 16:19:37 10° N
CZ-4B R/B 3.1 16:14:47 10° S 16:19:04 80° WSW 16:23:09 10° NNW
Iridium 2 3.6 16:21:46 10° N 16:25:31 65° E 16:29:14 10° SSE
Cosmos 1869 4.4 16:22:18 10° SSW 16:26:06 45° WNW 16:29:51 10° N
Cosmos 1766 Rocket 3.5 16:22:19 10° N 16:26:40 79° E 16:31:01 10° SSE
USA 305 3.0 16:25:58 10° SW 16:30:08 65° SE 16:33:32 15° ENE
SL-08 R/B 4.0 16:26:28 10° N 16:31:09 55° WNW 16:35:44 10° SSW
Cosmos 1606 3.0 16:27:42 10° SSE 16:31:16 44° E 16:34:52 10° NNE
ARGOS 3.9 16:28:54 10° ESE 16:33:34 30° ENE 16:38:13 10° N
Okean O Rocket 2.5 16:32:35 10° ESE 16:36:19 27° ENE 16:40:05 10° N
USA 276 2.5 16:33:20 10° W 16:36:24 49° N 16:38:19 20° ENE
COSMO-SKYMED 1 3.6 16:34:16 11° NE 16:37:38 25° E 16:41:12 10° SSE
Cosmos 1464 Rocket 4.0 16:33:33 10° S 16:39:49 66° E 16:46:09 10° NNE
Aureole 3 4.2 16:37:33 10° S 16:42:40 84° E 16:49:11 10° N
ERBS 3.3 16:43:15 10° SSW 16:46:04 29° SE 16:47:12 22° E
Meteor 2-19 Rocket 4.4 16:41:46 10° N 16:47:50 69° ENE 16:53:54 10° SSE
Cosmos 2221 2.5 16:45:07 10° S 16:49:18 62° E 16:53:33 10° NNE
NOSS 2-1 (E) 2.7 16:47:00 10° SW 16:50:17 86° SE 16:52:18 22° NE
USA 267 3.8 16:47:44 14° NE 16:53:05 48° NNW 16:59:18 10° W
ISS -3.3 16:49:54 10° W 16:53:14 51° NNW 16:54:50 26° NE
CZ-2C R/B 3.0 16:48:43 10° NNE 16:53:37 38° E 16:58:25 10° SSE
Cosmos 1340 Rocket 3.1 16:52:15 10° N 16:56:09 45° ENE 17:00:03 10° SSE
deb Chang Zheng 4 3.7 16:53:14 10° SE 16:57:23 51° ENE 17:01:35 10° N
Cosmos 1933 4.3 16:54:08 10° SE 16:57:28 25° E 16:57:32 25° E
YAOGAN 1 3.9 16:58:27 21° NE 16:58:27 21° NE 17:00:50 10° NNE
deb Kosmos-1763 4.0 16:54:13 10° S 16:57:32 52° ESE 16:59:07 27° NE
Cosmos 990 Rocket 4.3 16:55:16 10° N 17:00:13 41° ENE 17:05:05 10° SE
Nadezhda 4 Rocket 3.9 16:54:15 10° N 17:00:34 77° E 17:06:54 10° SSE
Cosmos 1271 Rocket 3.6 16:57:04 10° SSW 17:00:51 51° WNW 17:04:44 10° N
USA 306 2.8 16:57:33 10° WSW 17:01:50 84° NNW 17:04:01 28° ENE
USA 229 DEB 4.2 16:55:05 10° NW 17:02:00 46° NE 17:07:26 18° ESE
USA 229 4.2 16:55:11 10° NW 17:02:05 46° NE 17:07:28 18° ESE
Lacrosse 5 rocket 2.9 16:59:15 10° WNW 17:02:16 22° N 17:03:54 17° NNE
Landsat 5 4.2 17:02:19 26° ENE 17:03:40 32° E 17:07:24 10° SSE
SMAP 4.1 17:00:47 10° S 17:05:17 49° W 17:09:50 10° NNW
Cosmos 1092 Rocket 4.1 17:01:17 10° N 17:07:29 53° ENE 17:13:40 10° SSE
Cosmos 1408 Rocket 3.6 17:04:06 10° N 17:08:27 80° W 17:12:47 10° S
ATLAS 2AS CENTAUR R/B 4.1 17:02:11 10° W 17:09:14 35° NNW 17:15:29 12° NNE
Cosmos 1743 Rocket 3.5 17:06:07 10° N 17:10:25 58° ENE 17:14:40 10° SSE
SL-16 R/B 4.3 17:10:58 10° NNE 17:11:16 10° NNE 17:11:16 10° NNE
Cosmos 1697 Rocket 3.2 17:07:13 10° NNW 17:12:25 36° NE 17:14:22 28° E
Cosmos 1980 Rocket 3.3 17:08:09 10° N 17:12:38 23° NE 17:12:43 23° NE
H-2A R/B 2.1 17:07:38 10° SSE 17:12:55 86° WSW 17:18:07 10° NNW
COSMOS 2406 4.4 17:11:15 10° SSE 17:15:10 23° ESE 17:15:10 23° ESE
PAYLOAD B 4.5 17:10:06 10° S 17:15:43 74° WSW 17:21:21 10° NNW
USA 307 2.9 17:12:39 10° WSW 17:16:56 75° NNW 17:18:33 37° NE
SJ-11-01 4.2 17:13:29 10° SSE 17:18:12 66° ENE 17:22:56 10° N
Cosmos 44 3.1 17:13:54 10° NNW 17:18:45 62° NE 17:20:56 30° ESE
Cosmos 2034 Rocket 3.9 17:15:01 10° S 17:21:12 89° W 17:27:24 10° N
ATLAS CENTAUR R/B 2.4 17:17:22 10° WSW 17:21:19 42° NW 17:23:56 20° NNE
Cosmos 1627 Rocket 4.4 17:16:50 10° N 17:22:59 58° ENE 17:29:02 10° SSE
Lacrosse 5 3.1 17:19:12 10° WNW 17:23:58 41° SW 17:28:43 10° SSE
NOSS 3-1 (A) 4.0 17:18:15 10° NW 17:25:30 62° NE 17:31:39 20° ESE
SKYMED 2 3.4 17:22:52 19° NNE 17:25:55 75° ESE 17:30:14 10° S
Cosmos 1428 Rocket 4.4 17:19:57 10° N 17:26:00 62° ENE 17:32:04 10° SSE
Cosmos 1809 Rocket 4.3 17:22:26 10° N 17:28:32 66° ENE 17:34:34 10° SSE
Cosmos 1898 Rocket 3.6 17:23:57 10° NNW 17:29:08 52° ENE 17:31:16 32° ESE
NOSS 3-1 (C) 4.0 17:23:03 10° NW 17:30:29 89° NE 17:39:15 10° SE
MOS 1-B Rocket 3.9 17:25:07 10° NNE 17:30:48 89° WNW 17:36:59 10° SSW
NOSS 2-1 (C) 4.2 17:28:21 10° WSW 17:31:19 32° NW 17:32:11 28° N
Cosmos 1656 3.5 17:26:12 10° NNW 17:31:45 87° ENE 17:37:20 10° SSE
GEOS 3 Rocket 4.0 17:28:44 10° SSE 17:33:57 66° SW 17:39:09 10° NW
Cosmos 2084 4.2 17:30:29 10° NNW 17:33:54 36° NNE 17:33:54 36° NNE
Meteor 1-20 Rocket 4.2 17:30:25 10° NNW 17:36:14 89° WSW 17:42:05 10° S
USA 308 3.2 17:34:52 10° WSW 17:39:04 58° NNW 17:39:45 51° NNE
SL-08 RB Rocket 3.6 17:34:33 10° SSE 17:39:12 72° ENE 17:43:50 10° N
NOSS 2-1 (D) 4.5 17:37:47 10° W 17:40:38 27° NW 17:41:11 26° NNW
Cosmos 468 Rocket 3.9 17:36:55 10° S 17:41:57 60° ESE 17:42:42 53° ENE
Cosmos 1500 Rocket 4.0 17:37:32 10° NNW 17:41:58 63° W 17:46:20 10° S
Cosmos 2279 Rocket 4.2 17:37:48 10° SSE 17:43:29 43° E 17:43:29 43° E
SJ 16-02 3.5 17:40:50 10° NW 17:44:30 26° W 17:48:09 10° SSW
Cosmos 2360 4.2 17:41:56 10° NNW 17:47:37 58° ENE 17:48:27 53° E
Cosmos 1634 Rocket 3.9 17:43:19 10° S 17:49:36 74° E 17:55:57 10° NNE
Cosmos 1805 Rocket 3.5 17:47:58 10° N 17:52:20 82° W 17:56:40 10° S
CZ-4B R/B 4.0 17:48:16 10° S 17:53:36 51° W 17:58:53 10° NNW
CZ-4C R/B 3.4 17:49:10 10° NNW 17:55:30 38° NE 17:56:09 38° NE
CZ-4 R/B 3.5 18:00:41 18° N 18:00:41 18° N 18:01:48 10° N
Cosmos 1833 Rocket 2.6 17:53:22 10° SSW 17:58:47 62° ESE 17:58:47 62° ESE
ATLAS 5 CENTAUR R/B 3.2 17:52:20 10° NW 17:58:54 36° N 17:58:54 36° N
Cosmos 540 Rocket 4.4 17:59:32 10° S 18:02:28 33° SSE 18:02:28 33° SSE
Cosmos 2026 Rocket 4.2 18:02:35 10° NNW 18:08:45 70° W 18:14:48 10° S
USA 305 4.0 18:06:10 10° W 18:09:31 38° NW 18:09:31 38° NW
Sich 1 4.5 18:07:07 10° NNW 18:09:17 29° NNW 18:09:17 29° NNW
Okean O Rocket 3.2 18:08:28 10° SSW 18:12:33 35° W 18:16:39 10° NNW
ARGOS 4.2 18:08:29 10° S 18:13:38 44° W 18:18:50 10° NNW
COSMO-SKYMED 1 4.0 18:11:30 20° NNW 18:13:53 36° WNW 18:17:52 10° SW
ATLAS CENTAUR R/B 2.6 18:11:00 10° SW 18:19:17 79° WSW 18:19:17 79° WSW
Cosmos 1937 Rocket 3.7 18:16:26 10° NNW 18:21:06 68° NW 18:21:06 68° NW
Meteor 2-16 Rocket 4.3 18:18:42 10° N 18:24:50 89° W 18:25:15 79° S
Cosmos 1763 Rocket 4.0 18:23:48 10° SW 18:28:44 55° WNW 18:28:44 55° WNW
ISS -0.6 18:27:14 10° WNW 18:27:49 14° WNW 18:27:49 14° WNW
CZ-2C R/B 4.1 18:29:10 10° N 18:33:50 33° WNW 18:38:24 10° SW
USA 267 4.0 18:35:05 38° N 18:35:19 38° N 18:41:15 10° WNW
Cosmos 2369 4.3 18:33:58 10° NNW 18:38:07 49° NW 18:38:07 49° NW
Lacrosse 5 rocket 4.2 18:39:13 10° NW 18:39:29 11° NW 18:39:29 11° NW
USA 229 DEB 4.3 18:46:04 10° NW 18:53:16 58° WSW 18:54:57 49° SSW
USA 229 4.3 18:46:10 10° NW 18:53:22 59° WSW 18:54:58 50° SSW
Cosmos 1697 Rocket 3.7 18:51:12 10° NW 18:56:10 41° W 18:56:10 41° W
Cosmos 1980 Rocket 3.6 18:51:35 10° NNW 18:54:31 32° NNW 18:54:31 32° NNW
SL-16 R/B 4.5 18:52:20 10° NNW 18:53:08 14° N 18:53:08 14° N
COSMOS 2406 4.4 18:53:51 10° SW 18:57:17 36° SW 18:57:17 36° SW
ATLAS CENTAUR R/B 4.4 18:59:21 10° NW 19:00:03 12° NW 19:00:03 12° NW
ATLAS 2AS CENTAUR R/B 4.4 18:56:45 10° NW 19:02:32 22° N 19:02:55 22° N
Cosmos 2082 Rocket 4.5 18:57:23 10° SSW 18:58:13 15° SSW 18:58:13 15° SSW
CZ-4C R/B 4.0 19:37:29 10° NW 19:41:21 37° NW 19:41:21 37° NW
